Simultaneous Nadir Overpasses (SNOs) Predictions

Prediction of SNOs between NOAA-20 and METOP-B Satellite Orbit:

Table of predicted SNOs for the next 14.0 days since TLE Epoch: 12/2/2023
Index Date (NOAA-20) Time (NOAA-20) Lat,Lon (NOAA-20) SZA (NOAA-20 ) Date (METOP-B) Time (METOP-B) Lat,Lon (METOP-B) SZA (METOP-B ) Distance(km) Time Diff (sec)
1 12/15/2023 08:28:03 73.58, 43.05 96.93 12/15/2023 08:29:11 73.53, 45.26 96.79 69.65 68
2 12/15/2023 09:18:45 -73.47,-149.36 83.21 12/15/2023 09:19:55 -73.43,-147.66 83.32 54.19 70
3 12/15/2023 10:09:27 73.29, 18.35 96.61 12/15/2023 10:10:39 73.20, 19.18 96.48 28.59 72
4 12/15/2023 11:00:09 -73.17,-174.08 83.52 12/15/2023 11:01:22 -73.15,-173.61 83.57 15.32 73
5 12/15/2023 11:50:52 73.05, -6.49 96.35 12/15/2023 11:52:03 73.07, -6.44 96.37 3.21 71
6 12/15/2023 12:41:36 -73.03, 160.86 83.67 12/15/2023 12:42:46 -73.02, 160.77 83.69 3.28 70
7 12/15/2023 13:32:22 73.05, -31.88 96.36 12/15/2023 13:33:25 73.04, -31.84 96.34 1.68 63
8 12/15/2023 14:23:06 -73.03, 135.47 83.66 12/15/2023 14:24:07 -73.04, 135.48 83.66 0.30 61
9 12/15/2023 15:13:51 73.01, -57.16 96.32 12/15/2023 15:14:47 73.01, -57.24 96.32 2.83 56
10 12/15/2023 16:04:36 -73.04, 110.09 83.65 12/15/2023 16:05:29 -73.01, 110.08 83.69 3.65 53
11 12/15/2023 16:55:21 73.01, -82.54 96.33 12/15/2023 16:56:08 73.03, -82.54 96.34 2.18 47
12 12/15/2023 17:46:06 -73.05, 84.70 83.64 12/15/2023 17:46:50 -73.03, 84.78 83.66 3.31 44
13 12/15/2023 18:36:51 73.02,-107.93 96.34 12/15/2023 18:37:30 73.00,-107.94 96.32 1.79 39
14 12/15/2023 19:27:35 -73.00, 59.42 83.68 12/15/2023 19:28:12 -73.00, 59.38 83.69 1.30 37
15 12/15/2023 20:18:21 73.03,-133.32 96.35 12/15/2023 20:18:51 73.03,-133.23 96.34 2.87 30
16 12/15/2023 21:09:05 -73.01, 34.03 83.67 12/15/2023 21:09:33 -73.02, 34.09 83.66 2.27 28
17 12/15/2023 21:59:50 72.98,-158.60 96.31 12/15/2023 22:00:13 73.00,-158.63 96.32 1.90 23
18 12/15/2023 22:50:35 -73.02, 8.64 83.66 12/15/2023 22:50:55 -72.99, 8.69 83.69 2.85 20
19 12/15/2023 23:41:19 72.99, 176.01 96.32 12/15/2023 23:41:34 72.97, 175.97 96.30 2.86 15



Historial Predications of SNOs between NOAA-20 and METOP-B
